Powrót do katalogu

STARLINK-6280

AktywnyŁącznośćVLEO
NORAD 56531·PAYLOAD·🇺🇸 United States

Wystrzelony May 14, 2023 z Cape Canaveral Space Force Station

Loading…

Następne Przeloty (najbliższe 24 godziny)

TLE

ŚwieżeSource: CelesTrak SupGP

Epoka: Sep 14, 2026, 21:15 UTC

1 56531C 23065AE  26257.88590278  .00007875  00000+0  28526-3 0  2574
2 56531  43.0027 209.8646 0001369 263.9196 255.6982 15.27572338    19

Śledź STARLINK-6280 w czasie rzeczywistym z AllMySat

Download on the App Store